Location: Olsztyn
(53.7767°N, 20.4765°E)
Time: 03:20:21
(UTC+02:00)

Transit 4A - Visible Passes

Search period start: 16 April 2026 00:00
Search period end: 26 April 2026 00:00
Orbit: 862 x 979 km, 66.8° (Epoch: 15 April)

Date Brightness Start Highest point End Pass type
(mag) Time Alt. Az. Time Alt. Az. Time Alt. Az.
16 Apr 8.2 00:13:51 10° NW 00:20:01 53° WSW 00:20:26 52° SW visible
16 Apr 10.0 02:02:47 10° W 02:03:53 11° W 02:03:53 11° W visible
16 Apr 9.5 20:49:27 10° NW 20:54:55 29° NNE 21:00:27 10° ENE visible
16 Apr 8.2 22:36:07 10° NW 22:42:27 63° NE 22:45:24 33° ESE visible
17 Apr 8.6 00:22:45 10° NW 00:28:37 40° WSW 00:28:52 39° WSW visible
17 Apr 9.3 20:58:21 10° NW 21:04:02 33° NNE 21:09:45 10° E visible
17 Apr 8.0 22:44:52 10° NW 22:51:18 79° NE 22:53:51 39° SE visible
18 Apr 9.0 00:31:45 10° NW 00:37:08 30° WSW 00:37:19 30° WSW visible
18 Apr 9.0 21:07:12 10° NW 21:13:05 38° NNE 21:18:52 11° E visible
18 Apr 7.9 22:53:39 10° NW 23:00:04 83° SW 23:02:20 43° SSE visible
19 Apr 9.4 00:40:54 10° WNW 00:45:37 22° WSW 00:45:48 22° WSW visible
19 Apr 8.8 21:16:00 10° NW 21:22:05 44° NE 21:27:23 14° ESE visible
19 Apr 8.1 23:02:27 10° NW 23:08:47 65° WSW 23:10:51 43° S visible
20 Apr 9.8 00:50:23 10° WNW 00:54:00 16° WSW 00:54:19 16° WSW visible
20 Apr 8.5 21:24:46 10° NW 21:31:02 54° NE 21:35:55 17° ESE visible
20 Apr 8.4 23:11:19 10° NW 23:17:26 49° WSW 23:19:23 37° SSW visible
21 Apr 10.1 01:00:54 10° W 01:02:20 11° W 01:02:51 11° WSW visible
21 Apr 8.2 21:33:33 10° NW 21:39:55 67° NE 21:44:29 20° ESE visible
21 Apr 8.9 23:20:14 10° NW 23:26:01 37° WSW 23:27:57 30° SSW visible
22 Apr 8.0 21:42:19 10° NW 21:48:45 83° NE 21:53:05 22° SE visible
22 Apr 9.3 23:29:16 10° NW 23:34:32 28° WSW 23:36:34 23° SW visible
23 Apr 8.0 21:51:06 10° NW 21:57:31 78° SW 22:01:43 23° SSE visible
23 Apr 9.6 23:38:29 10° WNW 23:42:59 20° WSW 23:45:12 17° SW visible
24 Apr 8.3 21:59:55 10° NW 22:06:12 61° WSW 22:10:23 22° SSE visible
24 Apr 10.0 23:48:05 10° WNW 23:51:21 15° WSW 23:53:52 12° SW visible
25 Apr 8.7 22:08:47 10° NW 22:14:50 46° WSW 22:19:05 19° S visible
